QPF
0.00 0.00 0.00 0.00 0.00 0.00 0.00 0.00 0.01 0.01 0.00 0.00 0.00 0.00 0.00 0.01 0.01 0.01 0.01 0.01 0.01 0.01 0.01 0.00 0.00 0.00 0.00 0.00 0.00 0.00 0.01 0.02 0.02 0.02 0.03 0.05 0.05 0.06 0.06 0.06 0.06 0.09 0.12 0.16
0.00 0.00 0.00 0.00 0.00 0.00 0.00 0.00 0.01 0.01 0.00 0.00 0.00 0.00 0.00 0.01 0.01 0.01 0.01 0.02 0.02 0.01 0.01 0.00 0.00 0.00 0.00 0.00 0.00 0.00 0.01 0.02 0.03 0.03 0.03 0.04 0.05 0.05 0.05 0.05 0.06 0.07 0.09 0.12
0.00 0.00 0.00 0.00 0.00 0.00 0.00 0.00 0.00 0.01 0.00 0.00 0.00 0.01 0.01 0.01 0.01 0.01 0.01 0.01 0.01 0.00 0.00 0.00 0.00 0.00 0.00 0.00 0.01 0.01 0.02 0.03 0.04 0.04 0.06 0.06 0.06 0.06 0.05 0.05 0.05 0.06 0.07 0.09
0.00 0.00 0.00 0.00 0.00 0.00 0.00 0.00 0.00 0.00 0.01 0.01 0.01 0.02 0.01 0.01 0.01 0.00 0.01 0.01 0.00 0.00 0.00 0.00 0.00 0.01 0.01 0.01 0.01 0.02 0.02 0.03 0.05 0.06 0.09 0.08 0.07 0.07 0.07 0.06 0.04 0.04 0.05 0.07
0.00 0.00 0.00 0.00 0.00 0.00 0.00 0.00 0.00 0.00 0.00 0.01 0.01 0.02 0.01 0.00 0.00 0.00 0.01 0.01 0.00 0.00 0.00 0.00 0.00 0.01 0.00 0.01 0.01 0.02 0.02 0.03 0.04 0.06 0.09 0.10 0.08 0.08 0.09 0.09 0.07 0.05 0.05 0.05
0.00 0.00 0.00 0.00 0.00 0.00 0.00 0.00 0.00 0.00 0.00 0.00 0.00 0.01 0.01 0.00 0.00 0.00 0.01 0.01 0.01 0.00 0.00 0.00 0.00 0.00 0.00 0.01 0.02 0.03 0.03 0.04 0.05 0.06 0.07 0.07 0.08 0.09 0.09 0.09 0.12 0.10 0.08 0.07
0.00 0.00 0.00 0.00 0.00 0.00 0.00 0.00 0.00 0.00 0.00 0.00 0.00 0.00 0.00 0.00 0.00 0.00 0.00 0.01 0.00 0.00 0.00 0.00 0.00 0.00 0.01 0.01 0.02 0.03 0.03 0.05 0.06 0.06 0.07 0.06 0.06 0.07 0.09 0.10 0.11 0.10 0.10 0.09
0.00 0.00 0.00 0.00 0.00 0.00 0.00 0.00 0.00 0.00 0.00 0.00 0.00 0.00 0.00 0.00 0.00 0.00 0.00 0.00 0.00 0.00 0.00 0.00 0.01 0.01 0.01 0.02 0.02 0.04 0.04 0.04 0.05 0.07 0.07 0.06 0.06 0.06 0.09 0.11 0.11 0.10 0.09 0.10
0.00 0.00 0.00 0.00 0.00 0.00 0.00 0.00 0.00 0.00 0.00 0.00 0.00 0.00 0.00 0.00 0.00 0.00 0.00 0.00 0.00 0.00 0.00 0.00 0.01 0.01 0.01 0.01 0.02 0.04 0.06 0.05 0.05 0.07 0.08 0.07 0.09 0.09 0.08 0.08 0.08 0.10 0.10 0.09
0.00 0.00 0.00 0.00 0.00 0.00 0.00 0.00 0.00 0.00 0.00 0.00 0.00 0.00 0.00 0.00 0.00 0.00 0.00 0.00 0.00 0.00 0.00 0.00 0.00 0.01 0.01 0.01 0.04 0.04 0.05 0.06 0.04 0.04 0.06 0.07 0.10 0.11 0.08 0.06 0.07 0.09 0.11 0.12
0.00 0.00 0.00 0.00 0.00 0.00 0.00 0.00 0.00 0.00 0.00 0.00 0.00 0.00 0.00 0.00 0.01 0.00 0.00 0.00 0.00 0.00 0.00 0.00 0.00 0.00 0.01 0.01 0.03 0.03 0.02 0.03 0.04 0.03 0.03 0.04 0.07 0.08 0.08 0.06 0.08 0.08 0.09 0.10
0.00 0.00 0.00 0.00 0.00 0.00 0.00 0.00 0.00 0.00 0.00 0.00 0.00 0.00 0.00 0.00 0.00 0.00 0.00 0.00 0.00 0.00 0.00 0.00 0.00 0.00 0.01 0.01 0.02 0.02 0.01 0.03 0.04 0.03 0.03 0.02 0.04 0.06 0.07 0.07 0.10 0.07 0.08 0.10
0.00 0.00 0.00 0.00 0.00 0.00 0.00 0.00 0.00 0.00 0.00 0.00 0.00 0.00 0.00 0.00 0.00 0.00 0.00 0.00 0.00 0.00 0.00 0.00 0.00 0.00 0.00 0.01 0.01 0.01 0.01 0.02 0.02 0.02 0.02 0.02 0.02 0.03 0.05 0.07 0.07 0.05 0.05 0.08
0.00 0.00 0.00 0.00 0.00 0.00 0.00 0.00 0.00 0.00 0.00 0.00 0.00 0.00 0.00 0.00 0.00 0.00 0.00 0.00 0.00 0.00 0.00 0.00 0.00 0.00 0.00 0.00 0.00 0.00 0.00 0.01 0.01 0.01 0.01 0.01 0.01 0.02 0.03 0.03 0.05 0.06 0.05 0.07
0.00 0.00 0.00 0.00 0.00 0.00 0.00 0.00 0.00 0.00 0.00 0.00 0.00 0.00 0.00 0.00 0.00 0.00 0.00 0.00 0.00 0.00 0.00 0.00 0.00 0.00 0.00 0.00 0.00 0.00 0.00 0.01 0.01 0.01 0.01 0.01 0.01 0.01 0.02 0.02 0.03 0.05 0.06 0.06
0.00 0.00 0.00 0.00 0.00 0.00 0.00 0.00 0.00 0.00 0.00 0.00 0.00 0.00 0.00 0.00 0.00 0.00 0.00 0.00 0.00 0.00 0.00 0.00 0.00 0.00 0.00 0.00 0.00 0.00 0.00 0.00 0.01 0.01 0.01 0.02 0.02 0.01 0.01 0.02 0.02 0.04 0.05 0.04
0.00 0.00 0.00 0.00 0.00 0.00 0.00 0.00 0.00 0.00 0.00 0.00 0.00 0.00 0.00 0.00 0.00 0.00 0.00 0.00 0.00 0.00 0.00 0.00 0.00 0.00 0.00 0.00 0.00 0.00 0.00 0.00 0.00 0.00 0.01 0.01 0.01 0.01 0.01 0.01 0.01 0.02 0.03 0.03
0.00 0.00 0.00 0.00 0.00 0.00 0.00 0.00 0.00 0.00 0.00 0.00 0.00 0.00 0.00 0.00 0.00 0.00 0.00 0.00 0.00 0.00 0.00 0.00 0.00 0.00 0.00 0.00 0.00 0.00 0.00 0.00 0.00 0.00 0.00 0.00 0.01 0.01 0.01 0.01 0.01 0.01 0.02 0.03
0.00 0.00 0.00 0.00 0.00 0.00 0.00 0.00 0.00 0.00 0.00 0.00 0.00 0.00 0.00 0.00 0.00 0.00 0.00 0.00 0.00 0.00 0.00 0.00 0.00 0.00 0.00 0.00 0.00 0.00 0.00 0.00 0.00 0.00 0.00 0.00 0.00 0.00 0.01 0.01 0.01 0.01 0.01 0.02
0.00 0.00 0.00 0.00 0.00 0.00 0.00 0.00 0.00 0.00 0.00 0.00 0.00 0.00 0.00 0.00 0.00 0.00 0.00 0.00 0.00 0.00 0.00 0.00 0.00 0.00 0.00 0.00 0.00 0.00 0.00 0.00 0.00 0.00 0.00 0.00 0.00 0.00 0.00 0.01 0.01 0.01 0.01 0.01
0.00 0.00 0.00 0.00 0.00 0.00 0.00 0.00 0.00 0.00 0.00 0.00 0.00 0.00 0.00 0.00 0.00 0.00 0.00 0.00 0.00 0.00 0.00 0.00 0.00 0.00 0.00 0.00 0.00 0.00 0.00 0.00 0.00 0.00 0.00 0.00 0.00 0.00 0.00 0.00 0.01 0.01 0.01 0.01
0.00 0.00 0.00 0.00 0.00 0.00 0.00 0.00 0.00 0.00 0.00 0.00 0.00 0.00 0.00 0.00 0.00 0.00 0.00 0.00 0.00 0.00 0.00 0.00 0.00 0.00 0.00 0.00 0.00 0.00 0.00 0.00 0.00 0.00 0.00 0.00 0.00 0.00 0.00 0.00 0.01 0.01 0.01 0.01
0.00 0.00 0.00 0.00 0.00 0.00 0.00 0.00 0.00 0.00 0.00 0.00 0.00 0.00 0.00 0.00 0.00 0.00 0.00 0.00 0.00 0.00 0.00 0.00 0.00 0.00 0.00 0.00 0.00 0.00 0.00 0.00 0.00 0.00 0.00 0.00 0.00 0.00 0.00 0.00 0.00 0.00 0.01 0.01
0.00 0.00 0.00 0.00 0.00 0.00 0.00 0.00 0.00 0.00 0.00 0.00 0.00 0.00 0.00 0.00 0.00 0.00 0.00 0.00 0.00 0.00 0.00 0.00 0.00 0.00 0.00 0.00 0.00 0.00 0.00 0.00 0.00 0.00 0.00 0.00 0.00 0.00 0.00 0.00 0.00 0.00 0.00 0.00
0.00 0.00 0.00 0.00 0.00 0.00 0.00 0.00 0.00 0.00 0.00 0.00 0.00 0.00 0.00 0.00 0.00 0.00 0.00 0.00 0.00 0.00 0.00 0.00 0.00 0.00 0.00 0.00 0.00 0.00 0.00 0.00 0.00 0.00 0.00 0.00 0.00 0.00 0.00 0.00 0.00 0.00 0.00 0.00
0.00 0.00 0.00 0.00 0.00 0.00 0.00 0.00 0.00 0.00 0.00 0.00 0.00 0.00 0.00 0.00 0.00 0.00 0.00 0.00 0.00 0.00 0.00 0.00 0.00 0.00 0.00 0.00 0.00 0.00 0.00 0.00 0.00 0.00 0.00 0.00 0.00 0.00 0.00 0.00 0.00 0.00 0.00 0.00
MSLP
1012.27 1013.24 1014.10 1014.84 1015.46 1015.99 1016.47 1016.93 1017.42 1017.93 1018.45 1018.96 1019.40 1019.73 1019.92 1019.95 1019.81 1019.54 1019.18 1018.76 1018.34 1017.95 1017.61 1017.33 1017.10 1016.90 1016.71 1016.49 1016.25 1015.96 1015.64 1015.30 1014.96 1014.62 1014.30 1014.00 1013.72 1013.45 1013.20 1012.94 1012.69 1012.47 1012.28 1012.14
1013.28 1014.19 1014.96 1015.59 1016.08 1016.49 1016.86 1017.24 1017.66 1018.13 1018.63 1019.12 1019.57 1019.91 1020.12 1020.18 1020.09 1019.87 1019.56 1019.19 1018.82 1018.45 1018.12 1017.83 1017.56 1017.30 1017.04 1016.76 1016.47 1016.15 1015.82 1015.49 1015.16 1014.84 1014.52 1014.20 1013.88 1013.54 1013.19 1012.83 1012.49 1012.19 1011.94 1011.77
1014.15 1014.98 1015.65 1016.16 1016.55 1016.86 1017.15 1017.47 1017.84 1018.28 1018.75 1019.23 1019.68 1020.03 1020.27 1020.37 1020.33 1020.18 1019.94 1019.65 1019.33 1019.00 1018.67 1018.35 1018.03 1017.71 1017.38 1017.04 1016.70 1016.36 1016.04 1015.72 1015.42 1015.13 1014.82 1014.49 1014.12 1013.71 1013.26 1012.80 1012.35 1011.94 1011.62 1011.39
1014.81 1015.53 1016.10 1016.53 1016.84 1017.09 1017.34 1017.63 1017.98 1018.39 1018.85 1019.31 1019.74 1020.09 1020.35 1020.48 1020.49 1020.40 1020.24 1020.01 1019.75 1019.45 1019.13 1018.80 1018.44 1018.06 1017.67 1017.27 1016.90 1016.55 1016.23 1015.95 1015.69 1015.42 1015.13 1014.79 1014.38 1013.90 1013.36 1012.80 1012.23 1011.72 1011.29 1010.98
1015.25 1015.87 1016.35 1016.70 1016.97 1017.21 1017.46 1017.75 1018.10 1018.51 1018.95 1019.40 1019.80 1020.13 1020.37 1020.50 1020.54 1020.49 1020.38 1020.21 1020.00 1019.75 1019.45 1019.10 1018.72 1018.30 1017.87 1017.44 1017.04 1016.68 1016.38 1016.12 1015.89 1015.65 1015.37 1015.03 1014.59 1014.05 1013.44 1012.77 1012.10 1011.48 1010.94 1010.54
1015.54 1016.05 1016.45 1016.75 1017.01 1017.26 1017.54 1017.87 1018.26 1018.68 1019.12 1019.53 1019.89 1020.17 1020.36 1020.47 1020.50 1020.46 1020.38 1020.24 1020.07 1019.85 1019.58 1019.24 1018.86 1018.43 1017.98 1017.53 1017.12 1016.76 1016.47 1016.22 1016.00 1015.78 1015.50 1015.15 1014.68 1014.11 1013.43 1012.69 1011.94 1011.22 1010.59 1010.10
1015.76 1016.16 1016.48 1016.77 1017.03 1017.32 1017.66 1018.05 1018.48 1018.93 1019.36 1019.74 1020.04 1020.26 1020.39 1020.43 1020.41 1020.35 1020.26 1020.14 1019.99 1019.80 1019.56 1019.25 1018.88 1018.46 1018.01 1017.57 1017.15 1016.79 1016.49 1016.24 1016.02 1015.79 1015.51 1015.14 1014.65 1014.05 1013.34 1012.55 1011.75 1010.97 1010.27 1009.70
1015.98 1016.28 1016.55 1016.81 1017.10 1017.44 1017.84 1018.30 1018.79 1019.26 1019.69 1020.04 1020.28 1020.42 1020.46 1020.42 1020.33 1020.21 1020.09 1019.96 1019.82 1019.65 1019.44 1019.16 1018.82 1018.43 1018.00 1017.57 1017.16 1016.79 1016.47 1016.21 1015.97 1015.72 1015.41 1015.03 1014.53 1013.92 1013.19 1012.40 1011.57 1010.77 1010.04 1009.41
1016.23 1016.46 1016.68 1016.93 1017.24 1017.63 1018.09 1018.61 1019.15 1019.65 1020.07 1020.38 1020.57 1020.63 1020.58 1020.45 1020.28 1020.09 1019.92 1019.76 1019.61 1019.45 1019.26 1019.02 1018.72 1018.36 1017.97 1017.56 1017.16 1016.79 1016.46 1016.17 1015.89 1015.61 1015.28 1014.88 1014.38 1013.77 1013.07 1012.29 1011.49 1010.70 1009.96 1009.32
1016.52 1016.69 1016.88 1017.12 1017.45 1017.87 1018.38 1018.93 1019.49 1020.01 1020.42 1020.71 1020.84 1020.84 1020.71 1020.51 1020.26 1020.01 1019.78 1019.58 1019.41 1019.24 1019.06 1018.85 1018.59 1018.28 1017.92 1017.55 1017.17 1016.80 1016.47 1016.16 1015.85 1015.54 1015.20 1014.79 1014.29 1013.71 1013.04 1012.32 1011.57 1010.82 1010.11 1009.49
1016.79 1016.93 1017.10 1017.34 1017.68 1018.11 1018.63 1019.19 1019.75 1020.26 1020.66 1020.91 1021.02 1020.97 1020.80 1020.54 1020.25 1019.94 1019.67 1019.43 1019.22 1019.04 1018.87 1018.67 1018.44 1018.17 1017.86 1017.53 1017.18 1016.84 1016.52 1016.20 1015.89 1015.57 1015.22 1014.81 1014.34 1013.80 1013.19 1012.54 1011.86 1011.18 1010.53 1009.94
1016.99 1017.14 1017.31 1017.55 1017.87 1018.29 1018.79 1019.32 1019.85 1020.33 1020.69 1020.93 1021.01 1020.95 1020.77 1020.50 1020.18 1019.86 1019.55 1019.28 1019.05 1018.84 1018.65 1018.46 1018.25 1018.02 1017.76 1017.48 1017.18 1016.89 1016.60 1016.31 1016.02 1015.71 1015.37 1015.00 1014.57 1014.08 1013.54 1012.97 1012.36 1011.77 1011.19 1010.65
1017.10 1017.27 1017.46 1017.70 1018.01 1018.39 1018.82 1019.29 1019.76 1020.17 1020.49 1020.70 1020.78 1020.73 1020.57 1020.32 1020.02 1019.71 1019.40 1019.11 1018.86 1018.63 1018.42 1018.22 1018.02 1017.81 1017.60 1017.38 1017.15 1016.92 1016.69 1016.46 1016.21 1015.95 1015.66 1015.33 1014.95 1014.53 1014.06 1013.57 1013.05 1012.53 1012.02 1011.54
1017.13 1017.35 1017.57 1017.81 1018.08 1018.40 1018.75 1019.12 1019.47 1019.80 1020.06 1020.23 1020.31 1020.28 1020.17 1019.99 1019.75 1019.48 1019.19 1018.91 1018.65 1018.40 1018.17 1017.95 1017.75 1017.57 1017.39 1017.23 1017.08 1016.93 1016.78 1016.62 1016.45 1016.25 1016.02 1015.75 1015.44 1015.09 1014.69 1014.27 1013.83 1013.38 1012.94 1012.52
1017.12 1017.41 1017.66 1017.90 1018.13 1018.36 1018.59 1018.82 1019.05 1019.26 1019.43 1019.56 1019.64 1019.66 1019.61 1019.51 1019.36 1019.16 1018.93 1018.68 1018.42 1018.16 1017.91 1017.68 1017.48 1017.30 1017.16 1017.05 1016.97 1016.91 1016.85 1016.78 1016.69 1016.57 1016.42 1016.21 1015.96 1015.67 1015.34 1014.98 1014.60 1014.21 1013.83 1013.46
1017.14 1017.49 1017.77 1018.00 1018.17 1018.30 1018.40 1018.47 1018.54 1018.61 1018.69 1018.77 1018.84 1018.89 1018.93 1018.93 1018.88 1018.78 1018.63 1018.44 1018.21 1017.95 1017.69 1017.45 1017.24 1017.07 1016.95 1016.89 1016.87 1016.88 1016.90 1016.92 1016.91 1016.87 1016.77 1016.63 1016.43 1016.19 1015.91 1015.60 1015.28 1014.94 1014.61 1014.29
1017.24 1017.63 1017.93 1018.13 1018.24 1018.25 1018.20 1018.11 1018.01 1017.94 1017.90 1017.92 1017.98 1018.07 1018.18 1018.29 1018.36 1018.37 1018.32 1018.20 1018.02 1017.79 1017.54 1017.29 1017.08 1016.92 1016.82 1016.79 1016.81 1016.88 1016.96 1017.04 1017.09 1017.10 1017.06 1016.96 1016.81 1016.61 1016.37 1016.10 1015.81 1015.52 1015.23 1014.96
1017.41 1017.82 1018.11 1018.27 1018.29 1018.18 1017.99 1017.74 1017.48 1017.27 1017.13 1017.08 1017.12 1017.25 1017.43 1017.64 1017.82 1017.96 1018.01 1017.99 1017.87 1017.69 1017.47 1017.25 1017.04 1016.89 1016.80 1016.79 1016.84 1016.93 1017.05 1017.16 1017.25 1017.29 1017.27 1017.20 1017.07 1016.89 1016.68 1016.45 1016.20 1015.95 1015.70 1015.47
1017.57 1017.97 1018.23 1018.32 1018.25 1018.04 1017.71 1017.33 1016.94 1016.61 1016.38 1016.28 1016.31 1016.47 1016.71 1017.01 1017.30 1017.55 1017.72 1017.79 1017.76 1017.65 1017.48 1017.29 1017.12 1016.98 1016.91 1016.90 1016.96 1017.06 1017.18 1017.30 1017.39 1017.44 1017.43 1017.36 1017.25 1017.09 1016.90 1016.69 1016.48 1016.28 1016.08 1015.89
1017.61 1017.96 1018.16 1018.18 1018.03 1017.72 1017.29 1016.81 1016.34 1015.93 1015.65 1015.52 1015.55 1015.74 1016.04 1016.41 1016.80 1017.14 1017.41 1017.59 1017.65 1017.62 1017.52 1017.39 1017.25 1017.15 1017.09 1017.10 1017.16 1017.25 1017.36 1017.47 1017.54 1017.57 1017.56 1017.49 1017.38 1017.24 1017.07 1016.91 1016.74 1016.58 1016.43 1016.30
1017.41 1017.68 1017.80 1017.75 1017.52 1017.15 1016.67 1016.14 1015.63 1015.20 1014.91 1014.79 1014.84 1015.06 1015.41 1015.84 1016.29 1016.72 1017.08 1017.34 1017.49 1017.55 1017.53 1017.46 1017.39 1017.33 1017.30 1017.32 1017.38 1017.47 1017.56 1017.65 1017.70 1017.71 1017.68 1017.61 1017.51 1017.39 1017.26 1017.14 1017.02 1016.92 1016.83 1016.74
1016.90 1017.06 1017.09 1016.96 1016.68 1016.28 1015.80 1015.28 1014.80 1014.41 1014.16 1014.07 1014.17 1014.43 1014.81 1015.29 1015.79 1016.27 1016.69 1017.01 1017.24 1017.38 1017.44 1017.45 1017.44 1017.43 1017.45 1017.50 1017.57 1017.65 1017.74 1017.80 1017.84 1017.84 1017.80 1017.74 1017.66 1017.57 1017.49 1017.42 1017.36 1017.32 1017.28 1017.25
1016.07 1016.11 1016.03 1015.84 1015.54 1015.15 1014.71 1014.26 1013.86 1013.56 1013.40 1013.39 1013.54 1013.85 1014.27 1014.77 1015.29 1015.79 1016.23 1016.60 1016.88 1017.07 1017.20 1017.28 1017.34 1017.40 1017.47 1017.55 1017.65 1017.74 1017.83 1017.89 1017.92 1017.93 1017.91 1017.86 1017.82 1017.78 1017.75 1017.74 1017.74 1017.76 1017.78 1017.80
1015.00 1014.91 1014.74 1014.50 1014.20 1013.85 1013.49 1013.16 1012.88 1012.71 1012.66 1012.75 1012.98 1013.34 1013.78 1014.28 1014.80 1015.29 1015.74 1016.11 1016.41 1016.65 1016.82 1016.96 1017.08 1017.20 1017.32 1017.44 1017.57 1017.69 1017.79 1017.87 1017.92 1017.94 1017.95 1017.95 1017.95 1017.96 1017.99 1018.04 1018.11 1018.19 1018.26 1018.31
1013.83 1013.63 1013.39 1013.12 1012.83 1012.54 1012.28 1012.07 1011.95 1011.92 1012.00 1012.20 1012.51 1012.91 1013.36 1013.86 1014.35 1014.81 1015.22 1015.58 1015.88 1016.12 1016.33 1016.50 1016.67 1016.84 1017.00 1017.17 1017.33 1017.48 1017.60 1017.71 1017.79 1017.85 1017.89 1017.94 1018.00 1018.07 1018.16 1018.27 1018.39 1018.51 1018.62 1018.70
1012.78 1012.48 1012.17 1011.88 1011.61 1011.39 1011.22 1011.14 1011.14 1011.25 1011.45 1011.75 1012.12 1012.55 1013.02 1013.49 1013.94 1014.36 1014.73 1015.05 1015.33 1015.56 1015.77 1015.97 1016.16 1016.36 1016.56 1016.76 1016.95 1017.12 1017.28 1017.41 1017.52 1017.62 1017.71 1017.80 1017.91 1018.03 1018.17 1018.33 1018.49 1018.64 1018.78 1018.88
Thickness
5808 5795 5778 5779 5784 5781 5778 5769 5756 5745 5750 5741 5727 5717 5715 5716 5712 5706 5705 5702 5700 5697 5699 5699 5697 5697 5696 5696 5696 5697 5698 5700 5701 5703 5704 5706 5709 5714 5719 5724 5728 5731 5734 5737
5789 5777 5783 5788 5786 5781 5775 5764 5753 5743 5745 5737 5723 5714 5712 5709 5705 5701 5698 5694 5691 5688 5688 5688 5687 5686 5685 5685 5686 5687 5688 5690 5691 5693 5695 5698 5701 5705 5710 5714 5719 5722 5726 5729
5776 5773 5784 5780 5774 5767 5764 5754 5747 5738 5735 5731 5720 5705 5702 5704 5703 5699 5695 5690 5686 5682 5679 5678 5677 5676 5677 5676 5676 5678 5679 5681 5682 5685 5686 5689 5692 5695 5698 5703 5708 5714 5718 5722
5774 5777 5776 5770 5762 5755 5749 5750 5746 5736 5722 5717 5715 5690 5693 5697 5692 5689 5686 5682 5679 5676 5674 5672 5670 5669 5669 5669 5670 5670 5671 5672 5674 5676 5676 5677 5678 5681 5686 5692 5698 5704 5708 5712
5765 5770 5767 5758 5752 5749 5745 5748 5742 5735 5725 5717 5718 5702 5686 5693 5682 5680 5679 5677 5674 5672 5669 5667 5665 5664 5664 5664 5663 5663 5664 5664 5666 5668 5668 5669 5670 5673 5679 5684 5688 5693 5699 5703
5764 5769 5764 5756 5755 5752 5749 5744 5740 5736 5725 5706 5716 5703 5681 5683 5678 5677 5677 5675 5671 5669 5666 5664 5663 5661 5659 5659 5659 5658 5657 5657 5659 5660 5661 5661 5662 5665 5669 5674 5678 5683 5688 5694
5755 5759 5760 5759 5749 5750 5746 5730 5715 5710 5702 5704 5716 5704 5680 5685 5685 5680 5675 5672 5670 5668 5664 5661 5659 5656 5655 5655 5654 5653 5652 5652 5653 5654 5655 5656 5657 5659 5662 5666 5670 5675 5679 5684
5754 5741 5750 5750 5742 5734 5739 5730 5708 5696 5706 5705 5709 5696 5685 5693 5690 5686 5681 5675 5670 5666 5663 5660 5657 5655 5653 5652 5651 5650 5649 5648 5648 5649 5650 5651 5653 5654 5657 5661 5665 5668 5672 5677
5761 5735 5746 5746 5746 5739 5732 5733 5732 5714 5717 5710 5708 5697 5689 5694 5688 5684 5680 5674 5669 5666 5663 5660 5657 5655 5652 5651 5650 5648 5647 5646 5646 5646 5647 5648 5649 5651 5654 5658 5661 5664 5667 5672
5766 5744 5743 5744 5742 5740 5736 5730 5725 5714 5699 5695 5702 5696 5684 5682 5681 5680 5677 5673 5670 5668 5665 5661 5658 5656 5653 5652 5650 5649 5647 5645 5644 5645 5644 5645 5646 5648 5651 5654 5656 5660 5663 5666
5765 5750 5737 5738 5735 5729 5731 5729 5724 5718 5711 5691 5683 5679 5696 5688 5685 5680 5678 5676 5673 5669 5667 5663 5660 5658 5656 5654 5652 5650 5648 5646 5644 5644 5644 5644 5645 5647 5648 5650 5653 5656 5659 5662
5760 5754 5742 5738 5738 5738 5729 5723 5718 5704 5705 5706 5692 5680 5703 5697 5693 5687 5682 5679 5677 5674 5671 5668 5664 5661 5658 5655 5653 5651 5649 5647 5645 5644 5644 5643 5644 5645 5645 5646 5649 5652 5654 5656
5756 5746 5732 5721 5721 5727 5727 5723 5719 5714 5709 5705 5692 5684 5704 5702 5697 5692 5686 5683 5681 5678 5675 5672 5667 5664 5661 5659 5656 5654 5651 5649 5647 5645 5644 5643 5643 5643 5643 5644 5645 5647 5649 5651
5750 5747 5735 5719 5722 5730 5725 5721 5718 5712 5705 5704 5702 5697 5700 5701 5697 5694 5691 5688 5685 5682 5678 5675 5670 5668 5665 5663 5659 5656 5654 5652 5650 5647 5644 5642 5642 5641 5641 5642 5643 5643 5645 5646
5753 5747 5745 5739 5738 5735 5729 5724 5720 5714 5712 5706 5707 5705 5707 5706 5702 5699 5696 5692 5688 5684 5681 5678 5674 5672 5670 5667 5663 5660 5657 5655 5652 5647 5644 5642 5641 5641 5640 5640 5640 5640 5641 5642
5755 5747 5746 5738 5739 5736 5730 5730 5725 5720 5718 5715 5712 5710 5720 5715 5710 5705 5701 5696 5691 5687 5684 5682 5680 5677 5674 5671 5667 5663 5660 5657 5654 5648 5644 5643 5641 5639 5638 5638 5637 5637 5637 5637
5757 5749 5740 5739 5742 5735 5729 5742 5733 5729 5729 5723 5714 5720 5724 5716 5712 5709 5706 5701 5696 5692 5688 5685 5682 5680 5678 5676 5672 5667 5664 5661 5655 5650 5646 5643 5641 5639 5638 5637 5636 5635 5634 5634
5758 5750 5743 5741 5738 5721 5742 5762 5755 5742 5739 5738 5734 5732 5729 5724 5720 5718 5714 5708 5702 5697 5693 5689 5686 5683 5682 5680 5677 5673 5668 5663 5657 5651 5648 5644 5641 5639 5638 5636 5635 5634 5633 5632
5760 5749 5741 5741 5734 5744 5746 5757 5754 5741 5739 5749 5742 5738 5734 5732 5723 5719 5720 5715 5709 5703 5698 5693 5690 5688 5686 5683 5680 5676 5671 5665 5658 5653 5649 5646 5643 5640 5638 5636 5634 5633 5632 5631
5752 5750 5738 5737 5726 5732 5750 5764 5766 5750 5736 5760 5754 5744 5738 5731 5713 5716 5724 5719 5714 5708 5703 5698 5695 5693 5688 5686 5683 5678 5672 5665 5659 5655 5652 5648 5645 5642 5639 5637 5635 5634 5632 5631
5738 5738 5732 5728 5731 5751 5762 5766 5759 5731 5743 5765 5761 5753 5745 5734 5730 5732 5731 5724 5717 5711 5707 5703 5699 5694 5691 5689 5685 5679 5673 5667 5663 5659 5655 5652 5649 5646 5642 5640 5638 5636 5634 5632
5750 5747 5743 5740 5732 5742 5764 5760 5751 5756 5768 5767 5764 5759 5751 5745 5741 5737 5731 5724 5719 5713 5709 5705 5700 5697 5695 5692 5687 5680 5675 5672 5668 5663 5659 5655 5652 5649 5646 5642 5640 5638 5636 5633
5762 5765 5762 5759 5757 5769 5773 5771 5775 5778 5772 5769 5765 5762 5756 5748 5742 5737 5731 5726 5721 5716 5712 5708 5703 5700 5698 5695 5690 5683 5679 5676 5672 5667 5663 5659 5656 5652 5648 5645 5642 5639 5636 5633
5775 5779 5767 5761 5770 5776 5777 5779 5780 5779 5775 5773 5770 5765 5759 5750 5745 5739 5734 5729 5724 5720 5715 5710 5706 5702 5699 5697 5693 5688 5684 5681 5676 5671 5668 5664 5660 5655 5651 5647 5644 5639 5635 5632
5772 5769 5762 5760 5770 5776 5779 5780 5780 5779 5777 5774 5771 5767 5761 5754 5748 5743 5737 5733 5728 5723 5718 5714 5709 5705 5703 5701 5697 5693 5688 5684 5680 5676 5673 5668 5663 5658 5653 5649 5644 5641 5636 5633
5774 5769 5758 5757 5777 5776 5778 5784 5783 5777 5773 5771 5767 5764 5762 5757 5750 5746 5741 5737 5732 5726 5721 5715 5711 5708 5707 5704 5700 5696 5692 5687 5683 5680 5676 5671 5667 5662 5658 5653 5647 5643 5640 5636